Flag for U.S.A. Weather past 2 weeks in Durham, North Carolina, U.S.A.

55 °F

Scattered clouds.

Feels Like: 55 °F
Forecast: 31 / 57 °F
Wind: 3 mph from North

Location: Raleigh-Durham International Airport

Current Time: Nov 25, 2015 at 11:21:54 AM

Latest Report: Nov 25, 2015 at 10:51 AM

Visibility: 10 mi

Pressure: 30.67 "Hg

Humidity: 37%

Dew point: 29 °F

Location of DurhamLocation

Historic Weather in Durham — Graph


Durham temperature yesterday

Maximum temperature yesterday: 55 °F (at 1:51 PM)
Minimum temperature yesterday: 28 °F (at 4:51 AM)
Average temperature yesterday: 41 °F

Past Weeks' High & Low Weather Summary

High76 °F (Nov 12, 1:51 PM)97% (Nov 18, 4:51 AM)30.66 "Hg (Nov 18, 4:51 AM)
Low28 °F (Nov 24, 4:51 AM)20% (Nov 13, 2:51 PM)29.73 "Hg (Nov 12, 2:51 PM)
Average51 °F66%30.16 "Hg
* Reported Nov 10 9:51 AM — Nov 25 9:51 AM, Durham, Weather by CustomWeather, © 2015

Note: Actual official high and low records may vary slightly from our data, if they occured in-between our weather recording intervals... More about our weather records


Durham weather history for previous 24 hours

Time TempWeatherWind HumidityBarometerVisibility
9:51 AM
Wed, Nov 25
52 °FPassing clouds.No wind41%30.66 "Hg10 mi
8:51 AM42 °FPassing clouds.No wind82%30.64 "Hg10 mi
7:51 AM33 °FScattered clouds.No wind92%30.63 "Hg10 mi
6:51 AM32 °FPassing clouds.No wind92%30.60 "Hg10 mi
5:51 AM31 °FPassing clouds.No wind92%30.58 "Hg10 mi
4:51 AM33 °FPassing clouds.No wind88%30.56 "Hg10 mi
3:51 AM34 °FPassing clouds.No wind88%30.55 "Hg10 mi
2:51 AM34 °FPassing clouds.No wind88%30.54 "Hg10 mi
1:51 AM36 °FPassing clouds.No wind82%30.52 "Hg10 mi
12:51 AM35 °FPassing clouds.No wind85%30.51 "Hg10 mi
11:51 PM
Tue, Nov 24
35 °FPassing clouds.No wind82%30.50 "Hg10 mi
10:51 PM37 °FPassing clouds.No wind82%30.49 "Hg10 mi
9:51 PM38 °FPassing clouds.No wind76%30.48 "Hg10 mi
8:51 PM40 °FPassing clouds.No wind70%30.47 "Hg10 mi
7:51 PM41 °FPassing clouds.No wind70%30.47 "Hg10 mi
6:51 PM44 °FPassing clouds.No wind63%30.45 "Hg10 mi
5:51 PM45 °FPassing clouds.No wind60%30.43 "Hg10 mi
4:51 PM51 °FPartly sunny.No wind44%30.41 "Hg10 mi
3:51 PM55 °FPartly sunny.No wind34%30.40 "Hg10 mi
2:51 PM55 °FPartly sunny.No wind33%30.38 "Hg10 mi
1:51 PM55 °FPartly sunny.3 mph34%30.39 "Hg10 mi
12:51 PM54 °FScattered clouds.No wind34%30.41 "Hg10 mi
11:51 AM54 °FPassing clouds.6 mph35%30.43 "Hg10 mi
Weather by CustomWeather, © 2015

See weather overviewHow to use our weather pages